TimeCDT,TemperatureF,Dew PointF,Humidity,Sea Level PressureIn,VisibilityMPH,Wind Direction,Wind SpeedMPH,Gust SpeedMPH,PrecipitationIn,Events,Conditions,WindDirDegrees,DateUTC
12:44 AM,46.4,44.6,93,29.75,10.0,WNW,8.1,-,N/A,,Overcast,300,2012-10-20 05:44:00
1:52 AM,46.0,44.1,93,29.77,10.0,NW,6.9,-,N/A,,Overcast,320,2012-10-20 06:52:00
2:52 AM,46.0,43.0,89,29.78,10.0,NW,5.8,-,N/A,,Overcast,310,2012-10-20 07:52:00
3:38 AM,44.6,42.8,93,29.77,10.0,NW,4.6,-,N/A,,Scattered Clouds,320,2012-10-20 08:38:00
3:52 AM,43.0,41.0,93,29.78,9.0,WNW,6.9,-,N/A,,Partly Cloudy,300,2012-10-20 08:52:00
4:02 AM,42.8,42.8,100,29.78,8.0,WNW,8.1,-,N/A,,Mostly Cloudy,290,2012-10-20 09:02:00
4:19 AM,42.8,42.8,100,29.78,9.0,NW,5.8,-,N/A,,Scattered Clouds,310,2012-10-20 09:19:00
4:52 AM,44.1,42.1,93,29.80,9.0,NW,8.1,-,N/A,,Clear,320,2012-10-20 09:52:00
4:59 AM,44.6,42.8,93,29.79,9.0,NW,6.9,-,N/A,,Scattered Clouds,310,2012-10-20 09:59:00
5:07 AM,44.6,42.8,93,29.79,8.0,WNW,9.2,-,N/A,,Mostly Cloudy,300,2012-10-20 10:07:00
5:52 AM,43.0,42.1,97,29.82,7.0,NW,8.1,-,N/A,,Overcast,320,2012-10-20 10:52:00
6:52 AM,43.0,41.0,93,29.84,8.0,NW,5.8,-,N/A,,Overcast,310,2012-10-20 11:52:00
7:52 AM,43.0,41.0,93,29.86,6.0,NNW,8.1,-,N/A,,Overcast,330,2012-10-20 12:52:00
8:52 AM,43.0,42.1,97,29.88,6.0,NNW,3.5,-,N/A,,Overcast,340,2012-10-20 13:52:00
9:20 AM,44.6,42.8,93,29.87,8.0,NNW,4.6,-,N/A,,Overcast,340,2012-10-20 14:20:00
9:52 AM,46.0,42.1,86,29.89,10.0,WNW,5.8,-,N/A,,Overcast,300,2012-10-20 14:52:00
10:25 AM,46.4,42.8,87,29.88,10.0,West,3.5,-,N/A,,Overcast,280,2012-10-20 15:25:00
10:52 AM,46.9,43.0,86,29.88,10.0,Calm,Calm,-,N/A,,Overcast,0,2012-10-20 15:52:00
11:52 AM,50.0,43.0,77,29.89,10.0,Calm,Calm,-,N/A,,Scattered Clouds,0,2012-10-20 16:52:00
12:03 PM,50.0,42.8,76,29.89,10.0,Variable,3.5,-,N/A,,Mostly Cloudy,0,2012-10-20 17:03:00
12:33 PM,50.0,42.8,76,29.89,10.0,Calm,Calm,-,N/A,,Scattered Clouds,0,2012-10-20 17:33:00
1:05 PM,51.8,41.0,67,29.87,10.0,WSW,3.5,-,N/A,,Scattered Clouds,250,2012-10-20 18:05:00
1:41 PM,51.8,41.0,67,29.86,10.0,West,5.8,-,N/A,,Mostly Cloudy,270,2012-10-20 18:41:00
2:52 PM,55.9,41.0,57,29.86,10.0,SSW,5.8,-,N/A,,Mostly Cloudy,200,2012-10-20 19:52:00
4:52 PM,55.9,41.0,57,29.85,10.0,Calm,Calm,-,N/A,,Partly Cloudy,0,2012-10-20 21:52:00
5:52 PM,54.0,41.0,62,29.84,10.0,SSE,4.6,-,N/A,,Clear,160,2012-10-20 22:52:00
6:52 PM,50.0,41.0,71,29.86,10.0,SE,3.5,-,N/A,,Clear,130,2012-10-20 23:52:00
7:52 PM,48.0,41.0,77,29.87,10.0,ESE,4.6,-,N/A,,Clear,120,2012-10-21 00:52:00
8:52 PM,46.0,39.9,79,29.89,10.0,ESE,4.6,-,N/A,,Clear,120,2012-10-21 01:52:00
9:52 PM,45.0,39.9,82,29.90,10.0,SE,3.5,-,N/A,,Clear,140,2012-10-21 02:52:00
11:52 PM,43.0,39.9,89,29.93,10.0,Calm,Calm,-,N/A,,Clear,0,2012-10-21 04:52:00